W0SS-13 Weather Reports


Display with metric or nautical units.
time (UTC)temp
F
wind
direction
speed
MPH
gust
MPH
rain 1hr
in
rain 24hr
in
rain mn
in
humidity
%
barometer
mb
20260505055111 59 80 3.0 3.0 0.24 0.04 0.04 74 1006.4
20260505054608 60 339 5.0 6.0 0.12 0.02 0.02 71 1006.2
20260505054107 61 355 5.0 7.0 0.00 0.00 0.00 68 1006.1
20260505053603 63 10 5.0 6.0 0.00 0.00 0.00 63 1006.0
20260505053100 64 27 4.0 6.0 0.00 0.00 0.00 58 1006.0
20260505052557 65 48 8.0 9.0 0.00 0.00 0.00 52 1005.7
20260505052054 65 52 7.0 9.0 0.00 0.00 0.00 53 1005.7
20260505051551 66 343 6.0 8.0 0.00 0.00 0.00 55 1006.0
20260505051049 67 354 6.0 9.0 0.00 0.00 0.00 52 1005.9
20260505050547 68 42 8.0 10.0 0.00 0.00 0.00 48 1005.5
20260505041515 70 186 5.0 7.0 0.00 0.00 0.00 71 1004.3
20260505041012 70 190 7.0 8.0 0.00 0.00 0.00 71 1004.4
20260505040509 70 213 5.0 7.0 0.00 0.00 0.00 71 1004.7
20260505040007 70 211 4.0 7.0 0.00 0.00 0.00 71 1004.7
20260505035502 70 199 5.0 6.0 0.00 0.00 0.00 71 1004.6
20260505035000 69 175 5.0 7.0 0.00 0.00 0.00 71 1004.6
20260505034456 70 179 5.0 6.0 0.00 0.00 0.00 71 1004.7
20260505033953 70 186 5.0 7.0 0.00 0.00 0.00 70 1004.7
20260505033449 70 167 5.0 6.0 0.00 0.00 0.00 70 1004.6
20260505032948 69 174 4.0 4.0 0.00 0.00 0.00 69 1004.7
20260505032445 70 203 2.0 3.0 0.00 0.00 0.00 70 1004.7
20260505031941 70 192 2.0 2.0 0.00 0.00 0.00 69 1004.8
20260505031438 70 188 2.0 2.0 0.00 0.00 0.00 69 1004.4
20260505030935 70 188 3.0 4.0 0.00 0.00 0.00 68 1004.4
20260505030431 70 193 4.0 6.0 0.00 0.00 0.00 68 1004.4
20260505025926 70 184 3.0 4.0 0.00 0.00 0.00 68 1004.2
20260505025424 70 195 3.0 3.0 0.00 0.00 0.00 68 1004.2
20260505024923 70 182 2.0 3.0 0.00 0.00 0.00 67 1004.3
20260505024420 70 180 2.0 2.0 0.00 0.00 0.00 67 1004.2
20260505023917 71 192 1.0 2.0 0.00 0.00 0.00 66 1004.2
20260505023414 71 184 2.0 2.0 0.00 0.00 0.00 66 1003.9
20260505022911 71 184 2.0 2.0 0.00 0.00 0.00 65 1003.9
20260505022408 71 186 2.0 2.0 0.00 0.00 0.00 64 1003.9
20260505021905 71 185 2.0 3.0 0.00 0.00 0.00 64 1003.8
20260505021402 72 186 2.0 2.0 0.00 0.00 0.00 63 1003.8
20260505020858 72 181 3.0 3.0 0.00 0.00 0.00 62 1003.5
20260505020353 73 179 2.0 3.0 0.00 0.00 0.00 62 1003.5
20260505015850 73 192 2.0 2.0 0.00 0.00 0.00 62 1003.3
20260505015347 73 198 1.0 1.0 0.00 0.00 0.00 61 1003.4
20260505014845 73 199 2.0 2.0 0.00 0.00 0.00 60 1003.5
20260505014342 73 207 3.0 3.0 0.00 0.00 0.00 60 1003.5
20260505013838 73 196 2.0 2.0 0.00 0.00 0.00 59 1003.3
20260505013335 73 187 2.0 3.0 0.00 0.00 0.00 59 1003.3
20260505012834 73 188 0.0 1.0 0.00 0.00 0.00 60 1003.3
20260505012331 73 200 1.0 1.0 0.00 0.00 0.00 59 1003.1
20260505011827 74 200 1.0 1.0 0.00 0.00 0.00 58 1002.9
20260505011324 74 200 1.0 1.0 0.00 0.00 0.00 58 1003.0
20260505010820 74 200 1.0 1.0 0.00 0.00 0.00 57 1002.9
20260505010316 75 200 0.0 0.0 0.00 0.00 0.00 57 1002.7
20260505005812 75 200 0.0 1.0 0.00 0.00 0.00 56 1002.6
20260505005310 76 200 1.0 1.0 0.00 0.00 0.00 56 1002.8
20260505004807 76 200 1.0 2.0 0.00 0.00 0.00 55 1002.7
20260505004303 77 200 1.0 2.0 0.00 0.00 0.00 54 1002.9
20260505003801 77 200 1.0 1.0 0.00 0.00 0.00 54 1002.6
20260505003258 77 213 0.0 0.0 0.00 0.00 0.00 52 1002.5
20260505002754 78 214 0.0 0.0 0.00 0.00 0.00 53 1002.5
20260505002251 78 214 1.0 2.0 0.00 0.00 0.00 52 1002.5
20260505001749 79 234 1.0 1.0 0.00 0.00 0.00 51 1002.6
20260505001246 79 240 2.0 2.0 0.00 0.00 0.00 49 1002.6
20260505000743 79 243 1.0 1.0 0.00 0.00 0.00 51 1002.4
20260505000241 79 257 1.0 1.0 0.00 0.00 0.00 50 1002.5
20260504235737 78 248 1.0 1.0 0.00 0.00 0.00 50 1002.7
20260504235233 78 243 1.0 2.0 0.00 0.00 0.00 50 1002.5
20260504234731 78 240 1.0 2.0 0.00 0.00 0.00 49 1002.6
20260504234228 79 240 2.0 3.0 0.00 0.00 0.00 49 1002.7
20260504233724 79 251 3.0 3.0 0.00 0.00 0.00 49 1002.6
20260504233220 79 250 3.0 3.0 0.00 0.00 0.00 48 1002.5
20260504232718 80 232 2.0 3.0 0.00 0.00 0.00 48 1002.7
20260504232214 79 253 3.0 4.0 0.00 0.00 0.00 47 1002.7
20260504231711 79 239 3.0 4.0 0.00 0.00 0.00 48 1002.7
20260504231207 80 232 6.0 7.0 0.00 0.00 0.00 46 1002.7
20260504230703 80 217 4.0 6.0 0.00 0.00 0.00 47 1002.7
20260504230203 81 220 8.0 9.0 0.00 0.00 0.00 44 1002.5
20260504225701 81 235 6.0 8.0 0.00 0.00 0.00 44 1002.6
20260504225156 81 237 7.0 9.0 0.00 0.00 0.00 44 1002.7
20260504224654 81 227 8.0 10.0 0.00 0.00 0.00 44 1002.6
20260504224150 81 246 4.0 4.0 0.00 0.00 0.00 46 1002.6
20260504223647 81 258 4.0 4.0 0.00 0.00 0.00 46 1002.7
20260504223143 81 247 8.0 9.0 0.00 0.00 0.00 44 1002.7
20260504222640 81 234 5.0 6.0 0.00 0.00 0.00 42 1002.6
20260504222137 82 212 6.0 7.0 0.00 0.00 0.00 43 1002.6
20260504221634 82 223 6.0 7.0 0.00 0.00 0.00 44 1002.6
20260504221131 82 250 6.0 7.0 0.00 0.00 0.00 45 1002.7
20260504220627 82 257 6.0 8.0 0.00 0.00 0.00 43 1002.7
20260504220126 81 205 4.0 4.0 0.00 0.00 0.00 45 1002.7
20260504215621 80 214 4.0 6.0 0.00 0.00 0.00 46 1002.9
20260504215119 80 203 6.0 7.0 0.00 0.00 0.00 44 1002.8
20260504214615 80 184 7.0 9.0 0.00 0.00 0.00 44 1003.0
20260504214111 80 259 6.0 8.0 0.00 0.00 0.00 44 1003.2
20260504213608 80 250 8.0 9.0 0.00 0.00 0.00 45 1003.1
20260504213105 80 205 6.0 8.0 0.00 0.00 0.00 49 1003.2
20260504212601 80 231 7.0 8.0 0.00 0.00 0.00 44 1003.3
20260504212058 79 220 9.0 13.0 0.00 0.00 0.00 46 1003.1
20260504211555 80 215 6.0 8.0 0.00 0.00 0.00 48 1003.2
20260504211052 80 210 3.0 4.0 0.00 0.00 0.00 50 1003.1
20260504210549 80 215 8.0 10.0 0.00 0.00 0.00 47 1003.2
20260504210045 79 203 8.0 11.0 0.00 0.00 0.00 50 1003.3
20260504205543 80 217 6.0 9.0 0.00 0.00 0.00 49 1003.3
20260504205041 80 213 9.0 11.0 0.00 0.00 0.00 48 1003.3
20260504204539 80 207 4.0 6.0 0.00 0.00 0.00 49 1003.3
20260504204038 80 192 9.0 11.0 0.00 0.00 0.00 47 1003.2
20260504203535 80 220 9.0 10.0 0.00 0.00 0.00 47 1003.7
20260504203033 80 201 8.0 10.0 0.00 0.00 0.00 47 1003.5
20260504202528 81 211 10.0 13.0 0.00 0.00 0.00 45 1003.5
20260504202025 81 215 7.0 10.0 0.00 0.00 0.00 46 1003.5
20260504201522 81 207 7.0 9.0 0.00 0.00 0.00 45 1003.5
20260504201020 82 207 9.0 10.0 0.00 0.00 0.00 45 1003.5
20260504200516 81 196 6.0 8.0 0.00 0.00 0.00 45 1003.5
20260504200013 82 211 7.0 9.0 0.00 0.00 0.00 45 1003.6
20260504195509 82 233 5.0 6.0 0.00 0.00 0.00 46 1003.7
20260504195006 81 239 6.0 8.0 0.00 0.00 0.00 45 1003.5
20260504194502 81 251 10.0 13.0 0.00 0.00 0.00 41 1003.6
20260504193957 81 242 9.0 11.0 0.00 0.00 0.00 42 1003.5
20260504193455 81 225 6.0 8.0 0.00 0.00 0.00 43 1003.8
20260504192954 81 205 11.0 13.0 0.00 0.00 0.00 42 1003.6
20260504192450 80 244 10.0 11.0 0.00 0.00 0.00 46 1003.5
20260504191949 80 243 9.0 11.0 0.00 0.00 0.00 43 1003.6
20260504191447 80 219 10.0 11.0 0.00 0.00 0.00 45 1003.7
20260504190942 81 241 6.0 7.0 0.00 0.00 0.00 44 1003.5
20260504190438 80 207 8.0 9.0 0.00 0.00 0.00 45 1003.6
20260504185935 80 229 9.0 11.0 0.00 0.00 0.00 42 1003.9
20260504185432 80 209 6.0 8.0 0.00 0.00 0.00 44 1003.7
20260504184928 79 231 9.0 14.0 0.00 0.00 0.00 47 1003.7
20260504184424 79 253 10.0 10.0 0.00 0.00 0.00 47 1003.9
20260504183920 80 270 8.0 10.0 0.00 0.00 0.00 47 1003.7
20260504183417 79 255 4.0 4.0 0.00 0.00 0.00 52 1003.9
20260504182915 78 229 7.0 7.0 0.00 0.00 0.00 49 1003.9
20260504182412 78 225 7.0 9.0 0.00 0.00 0.00 48 1004.2
20260504181909 78 233 8.0 9.0 0.00 0.00 0.00 49 1004.0
20260504181406 78 255 6.0 9.0 0.00 0.00 0.00 50 1004.1
20260504180905 77 206 6.0 7.0 0.00 0.00 0.00 49 1004.1
20260504180403 77 254 12.0 15.0 0.00 0.00 0.00 48 1003.9
20260504175901 77 246 9.0 11.0 0.00 0.00 0.00 48 1004.1
20260504175357 77 246 6.0 9.0 0.00 0.00 0.00 50 1004.2
20260504174855 77 238 6.0 8.0 0.00 0.00 0.00 51 1004.3
20260504174353 77 225 8.0 9.0 0.00 0.00 0.00 48 1004.2
20260504173850 77 226 6.0 8.0 0.00 0.00 0.00 50 1004.4
20260504173346 76 224 6.0 8.0 0.00 0.00 0.00 51 1004.4
20260504172844 76 215 7.0 8.0 0.00 0.00 0.00 48 1004.2
20260504172340 75 203 6.0 8.0 0.00 0.00 0.00 49 1004.2
20260504171836 75 190 5.0 6.0 0.00 0.00 0.00 51 1004.6
20260504171333 75 184 10.0 11.0 0.00 0.00 0.00 51 1004.6
20260504170830 75 241 9.0 10.0 0.00 0.00 0.00 50 1004.4
20260504170327 75 225 11.0 13.0 0.00 0.00 0.00 49 1004.7
20260504160245 73 280 12.0 16.0 0.00 0.00 0.00 51 1004.6
20260504150711 70 261 11.0 14.0 0.00 0.00 0.00 52 1005.0
20260504150208 70 241 11.0 14.0 0.00 0.00 0.00 53 1004.8
20260504141137 67 216 7.0 9.0 0.00 0.00 0.00 56 1004.9
20260504140633 66 224 9.0 10.0 0.00 0.00 0.00 57 1005.1
20260504140129 67 242 8.0 10.0 0.00 0.00 0.00 57 1005.0
20260504130557 65 210 5.0 7.0 0.00 0.00 0.00 59 1004.7
20260504110439 62 187 5.0 6.0 0.00 0.00 0.00 59 1005.3
20260504100355 64 237 6.0 7.0 0.00 0.00 0.00 56 1005.7
20260504081749 66 224 6.0 9.0 0.00 0.00 0.00 53 1005.9
20260504081245 66 216 6.0 13.0 0.00 0.00 0.00 53 1005.8
20260504080742 65 215 10.0 11.0 0.00 0.00 0.00 53 1006.0
20260504080238 65 208 7.0 9.0 0.00 0.00 0.00 54 1006.1
20260504070206 64 206 3.0 3.0 0.00 0.00 0.00 55 1006.9
20260504060126 64 179 3.0 3.0 0.00 0.00 0.00 55 1007.8